AXB1511 VOHS-VABB

Flight info

Callsign AXB1511
Flight time 1h 0m
Altitude 34000
Route TAMIV5 APUSU W18 OPAKA EMRAK2A
Aircraft B738/M-SDE2E3FGHIRWXY/LB1

Departure

Time 2026-04-25 08:48
Airport Rajiv Gandhi International Airport (VOHS)

Arrival

Time 2026-04-25 09:48
Airport Chhatrapati Shivaji Maharaj International Airport (VABB)
Time Latitude Longitude Altitude Speed Heading
2026-04-25 07:56 17.23418 78.43246 1979 ft 0 kts
2026-04-25 07:56 17.23417 78.43246 1979 ft 0 kts
2026-04-25 08:30 17.23416 78.43246 1979 ft 0 kts
2026-04-25 08:30 17.23414 78.43246 1982 ft 0 kts
2026-04-25 08:30 17.23410 78.43246 1982 ft 1 kts
2026-04-25 08:31 17.23403 78.43246 1981 ft 1 kts 360°
2026-04-25 08:31 17.23395 78.43246 1980 ft 1 kts
2026-04-25 08:31 17.23389 78.43245 1981 ft 0 kts 18°
2026-04-25 08:31 17.23385 78.43244 1980 ft 1 kts 16°
2026-04-25 08:32 17.23377 78.43241 1979 ft 1 kts 15°
2026-04-25 08:32 17.23370 78.43239 1982 ft 1 kts 19°
2026-04-25 08:32 17.23365 78.43237 1982 ft 1 kts 34°
2026-04-25 08:32 17.23360 78.43235 1982 ft 0 kts 65°
2026-04-25 08:33 17.23359 78.43234 1982 ft 0 kts 72°
2026-04-25 08:33 17.23360 78.43235 1982 ft 0 kts 70°
2026-04-25 08:37 17.23362 78.43249 1980 ft 3 kts 83°
2026-04-25 08:38 17.23363 78.43286 1981 ft 8 kts 89°
2026-04-25 08:38 17.23364 78.43342 1980 ft 8 kts 89°
2026-04-25 08:38 17.23365 78.43401 1979 ft 9 kts 89°
2026-04-25 08:38 17.23365 78.43470 1979 ft 10 kts 89°
2026-04-25 08:39 17.23367 78.43541 1979 ft 9 kts 88°
2026-04-25 08:39 17.23368 78.43610 1979 ft 11 kts 89°
2026-04-25 08:39 17.23354 78.43686 1981 ft 11 kts 141°
2026-04-25 08:39 17.23273 78.43696 1981 ft 13 kts 178°
2026-04-25 08:40 17.23204 78.43697 1980 ft 8 kts 179°
2026-04-25 08:40 17.23199 78.43697 1981 ft 0 kts 179°
2026-04-25 08:41 17.23198 78.43697 1982 ft 0 kts 179°
2026-04-25 08:41 17.23192 78.43697 1981 ft 2 kts 179°
2026-04-25 08:42 17.23163 78.43698 1980 ft 7 kts 179°
2026-04-25 08:42 17.23102 78.43723 1979 ft 11 kts 122°
2026-04-25 08:42 17.23093 78.43806 1979 ft 12 kts 90°
2026-04-25 08:42 17.23095 78.43905 1979 ft 16 kts 88°
2026-04-25 08:43 17.23096 78.44034 1980 ft 20 kts 89°
2026-04-25 08:43 17.23099 78.44192 1982 ft 24 kts 89°
2026-04-25 08:43 17.23104 78.44380 1980 ft 28 kts 90°
2026-04-25 08:43 17.23100 78.44592 1980 ft 30 kts 85°
2026-04-25 08:44 17.23106 78.44804 1978 ft 27 kts 89°
2026-04-25 08:44 17.23071 78.44919 1982 ft 12 kts 161°
2026-04-25 08:44 17.23053 78.44923 1980 ft 0 kts 173°
2026-04-25 08:46 17.23050 78.44924 1979 ft 2 kts 173°
2026-04-25 08:46 17.23013 78.44926 1981 ft 6 kts 181°
2026-04-25 08:46 17.22969 78.44924 1982 ft 6 kts 181°
2026-04-25 08:46 17.22926 78.44920 1983 ft 6 kts 197°
2026-04-25 08:47 17.22906 78.44881 1980 ft 6 kts 266°
2026-04-25 08:47 17.22905 78.44833 1979 ft 9 kts 269°
2026-04-25 08:47 17.22900 78.44571 1981 ft 72 kts 269°
2026-04-25 08:47 17.22890 78.43803 1979 ft 137 kts 270°
2026-04-25 08:48 17.22900 78.42636 2185 ft 171 kts 273°
2026-04-25 08:48 17.22934 78.41388 2974 ft 179 kts 272°
2026-04-25 08:48 17.22940 78.39995 3433 ft 200 kts 269°
2026-04-25 08:48 17.22891 78.38503 4133 ft 209 kts 268°
2026-04-25 08:49 17.22841 78.36968 4862 ft 213 kts 269°
2026-04-25 08:49 17.22802 78.35418 5564 ft 214 kts 269°
2026-04-25 08:49 17.22770 78.33864 6254 ft 213 kts 269°
2026-04-25 08:49 17.22775 78.32298 6777 ft 223 kts 279°
2026-04-25 08:50 17.23145 78.30626 7021 ft 248 kts 287°
2026-04-25 08:50 17.23692 78.28805 7222 ft 276 kts 289°
2026-04-25 08:50 17.24306 78.26829 7708 ft 290 kts 289°
2026-04-25 08:50 17.24932 78.24802 8447 ft 295 kts 289°
2026-04-25 08:51 17.25555 78.22757 9283 ft 296 kts 288°
2026-04-25 08:51 17.26176 78.20688 10067 ft 300 kts 288°
2026-04-25 08:51 17.26808 78.18558 10490 ft 317 kts 288°
2026-04-25 08:51 17.27483 78.16270 10675 ft 341 kts 288°
2026-04-25 08:52 17.28198 78.13832 10959 ft 359 kts 288°
2026-04-25 08:52 17.28926 78.11336 11506 ft 366 kts 287°
2026-04-25 08:52 17.29670 78.08779 12232 ft 368 kts 287°
2026-04-25 08:52 17.30418 78.06202 12907 ft 373 kts 287°
2026-04-25 08:53 17.31179 78.03583 13559 ft 378 kts 287°
2026-04-25 08:53 17.31944 78.00943 13920 ft 379 kts 287°
2026-04-25 08:53 17.32708 77.98306 13929 ft 379 kts 287°
2026-04-25 08:53 17.33476 77.95655 13938 ft 381 kts 287°
2026-04-25 08:54 17.34244 77.93002 13937 ft 381 kts 287°
2026-04-25 08:54 17.35012 77.90349 13937 ft 381 kts 287°
2026-04-25 08:54 17.35778 77.87702 13939 ft 381 kts 287°
2026-04-25 08:54 17.36549 77.85036 13937 ft 382 kts 287°
2026-04-25 08:55 17.37319 77.82373 13941 ft 382 kts 287°
2026-04-25 08:55 17.38088 77.79712 13930 ft 382 kts 287°
2026-04-25 08:55 17.38696 77.77605 13994 ft 385 kts 287°
2026-04-25 08:55 17.39473 77.74912 14609 ft 386 kts 287°
2026-04-25 08:56 17.40245 77.72235 15422 ft 382 kts 287°
2026-04-25 08:56 17.41012 77.69575 16146 ft 382 kts 286°
2026-04-25 08:56 17.41777 77.66916 16802 ft 383 kts 286°
2026-04-25 08:56 17.42549 77.64239 17479 ft 383 kts 286°
2026-04-25 08:57 17.43318 77.61566 18087 ft 386 kts 286°
2026-04-25 08:57 17.44045 77.58840 18580 ft 390 kts 282°
2026-04-25 08:57 17.44514 77.56075 19065 ft 392 kts 277°
2026-04-25 08:57 17.44863 77.53200 19580 ft 393 kts 275°
2026-04-25 08:58 17.45168 77.50387 20083 ft 395 kts 275°
2026-04-25 08:58 17.45480 77.47523 20577 ft 398 kts 275°
2026-04-25 08:58 17.45810 77.44631 21068 ft 400 kts 275°
2026-04-25 08:58 17.46156 77.41728 21536 ft 403 kts 275°
2026-04-25 08:59 17.46515 77.38810 21994 ft 406 kts 275°
2026-04-25 08:59 17.46883 77.35872 22451 ft 408 kts 275°
2026-04-25 08:59 17.47257 77.32919 22888 ft 410 kts 274°
2026-04-25 08:59 17.47634 77.29952 23308 ft 413 kts 274°
2026-04-25 09:00 17.48014 77.26962 23698 ft 415 kts 274°
2026-04-25 09:00 17.48396 77.23962 24081 ft 416 kts 274°
2026-04-25 09:00 17.48777 77.20960 24477 ft 417 kts 274°
2026-04-25 09:00 17.49158 77.17945 24848 ft 418 kts 274°
2026-04-25 09:01 17.49540 77.14924 25218 ft 419 kts 274°
2026-04-25 09:01 17.49922 77.11893 25570 ft 420 kts 274°
2026-04-25 09:01 17.50305 77.08854 25926 ft 422 kts 274°
2026-04-25 09:01 17.50689 77.05805 26282 ft 423 kts 274°
2026-04-25 09:02 17.51073 77.02747 26630 ft 424 kts 273°
2026-04-25 09:02 17.51458 76.99681 26962 ft 425 kts 273°
2026-04-25 09:02 17.51844 76.96602 27292 ft 427 kts 273°
2026-04-25 09:02 17.52230 76.93514 27610 ft 428 kts 273°
2026-04-25 09:03 17.52617 76.90419 27937 ft 429 kts 273°
2026-04-25 09:03 17.53005 76.87313 28243 ft 431 kts 273°
2026-04-25 09:03 17.53394 76.84193 28542 ft 432 kts 273°
2026-04-25 09:03 17.53784 76.81066 28855 ft 433 kts 273°
2026-04-25 09:04 17.54169 76.77975 29150 ft 434 kts 272°
2026-04-25 09:04 17.54559 76.74836 29433 ft 435 kts 272°
2026-04-25 09:04 17.55071 76.71694 29679 ft 443 kts 282°
2026-04-25 09:04 17.56361 76.68719 29915 ft 457 kts 297°
2026-04-25 09:05 17.58358 76.66092 30151 ft 469 kts 309°
2026-04-25 09:05 17.61008 76.64008 30335 ft 484 kts 324°
2026-04-25 09:05 17.63994 76.62338 30590 ft 487 kts 327°
2026-04-25 09:05 17.67028 76.60750 30859 ft 488 kts 327°
2026-04-25 09:06 17.70071 76.59178 31169 ft 487 kts 327°
2026-04-25 09:06 17.73097 76.57595 31492 ft 485 kts 327°
2026-04-25 09:06 17.76099 76.55996 31794 ft 484 kts 326°
2026-04-25 09:06 17.79087 76.54381 32076 ft 483 kts 326°
2026-04-25 09:07 17.82072 76.52754 32367 ft 483 kts 326°
2026-04-25 09:07 17.85046 76.51128 32666 ft 482 kts 325°
2026-04-25 09:07 17.88018 76.49502 32967 ft 482 kts 325°
2026-04-25 09:07 17.90992 76.47876 33272 ft 481 kts 325°
2026-04-25 09:08 17.93962 76.46254 33567 ft 481 kts 325°
2026-04-25 09:08 17.96889 76.44656 33845 ft 481 kts 325°
2026-04-25 09:08 17.99863 76.43030 33928 ft 484 kts 325°
2026-04-25 09:09 18.05880 76.39818 33930 ft 484 kts 326°
2026-04-25 09:09 18.11904 76.36669 33977 ft 485 kts 326°
2026-04-25 09:09 18.14930 76.35083 34189 ft 485 kts 326°
2026-04-25 09:10 18.17944 76.33502 34509 ft 483 kts 326°
2026-04-25 09:10 18.20936 76.31930 34859 ft 480 kts 326°
2026-04-25 09:10 18.23912 76.30363 35175 ft 478 kts 326°
2026-04-25 09:10 18.26882 76.28796 35433 ft 477 kts 326°
2026-04-25 09:11 18.32803 76.25666 35905 ft 476 kts 326°
2026-04-25 09:11 18.38754 76.22515 35930 ft 479 kts 326°
2026-04-25 09:12 18.44692 76.19377 35920 ft 474 kts 326°
2026-04-25 09:12 18.50521 76.16293 35945 ft 471 kts 325°
2026-04-25 09:13 18.56367 76.13195 35934 ft 470 kts 325°
2026-04-25 09:13 18.62197 76.10102 35936 ft 469 kts 325°
2026-04-25 09:14 18.68030 76.07006 35928 ft 469 kts 325°
2026-04-25 09:14 18.73861 76.03905 35927 ft 469 kts 323°
2026-04-25 09:15 18.76487 76.01991 35915 ft 450 kts 307°
2026-04-25 09:15 18.78437 75.99496 35927 ft 435 kts 294°
2026-04-25 09:15 18.79797 75.96698 35928 ft 423 kts 282°
2026-04-25 09:15 18.80662 75.93757 35941 ft 420 kts 280°
2026-04-25 09:16 18.82392 75.87840 35926 ft 423 kts 281°
2026-04-25 09:16 18.84175 75.81913 35922 ft 425 kts 281°
2026-04-25 09:17 18.86883 75.72985 35921 ft 427 kts 281°
2026-04-25 09:18 18.88694 75.67008 35916 ft 427 kts 281°
2026-04-25 09:18 18.90503 75.61028 35912 ft 427 kts 281°
2026-04-25 09:19 18.92294 75.55096 35914 ft 426 kts 281°
2026-04-25 09:19 18.94090 75.49135 35913 ft 425 kts 280°
2026-04-25 09:20 18.95185 75.43103 35911 ft 416 kts 272°
2026-04-25 09:20 18.95980 75.37050 35907 ft 416 kts 272°
2026-04-25 09:21 18.96785 75.31010 35912 ft 415 kts 272°
2026-04-25 09:21 18.97615 75.24968 35901 ft 415 kts 272°
2026-04-25 09:21 18.98034 75.21933 35465 ft 421 kts 272°
2026-04-25 09:22 18.98459 75.18876 34924 ft 420 kts 272°
2026-04-25 09:22 18.98884 75.15829 34338 ft 419 kts 272°
2026-04-25 09:22 18.99303 75.12820 33678 ft 420 kts 272°
2026-04-25 09:22 18.99728 75.09762 32991 ft 420 kts 272°
2026-04-25 09:23 19.00152 75.06715 32353 ft 419 kts 272°
2026-04-25 09:23 19.00572 75.03697 31950 ft 413 kts 272°
2026-04-25 09:23 19.00987 75.00707 31482 ft 409 kts 272°
2026-04-25 09:23 19.01397 74.97752 31026 ft 404 kts 272°
2026-04-25 09:24 19.01801 74.94828 30594 ft 400 kts 272°
2026-04-25 09:24 19.02201 74.91928 30153 ft 397 kts 272°
2026-04-25 09:24 19.02596 74.89053 29683 ft 394 kts 273°
2026-04-25 09:24 19.02987 74.86210 29244 ft 389 kts 273°
2026-04-25 09:25 19.03374 74.83393 28789 ft 385 kts 273°
2026-04-25 09:25 19.03756 74.80609 28343 ft 381 kts 274°
2026-04-25 09:25 19.04134 74.77846 27928 ft 378 kts 274°
2026-04-25 09:25 19.04509 74.75090 27499 ft 383 kts 274°
2026-04-25 09:26 19.04894 74.72242 27052 ft 400 kts 274°
2026-04-25 09:26 19.05291 74.69298 26571 ft 406 kts 275°
2026-04-25 09:26 19.05693 74.66353 26090 ft 403 kts 275°
2026-04-25 09:26 19.06092 74.63437 25621 ft 400 kts 275°
2026-04-25 09:27 19.06490 74.60532 25157 ft 397 kts 276°
2026-04-25 09:27 19.06882 74.57657 24703 ft 395 kts 276°
2026-04-25 09:27 19.07273 74.54783 24256 ft 393 kts 276°
2026-04-25 09:27 19.07660 74.51929 23776 ft 393 kts 277°
2026-04-25 09:28 19.08047 74.49074 23284 ft 392 kts 277°
2026-04-25 09:28 19.08432 74.46226 22775 ft 390 kts 277°
2026-04-25 09:28 19.08809 74.43435 22306 ft 388 kts 277°
2026-04-25 09:28 19.09188 74.40626 21848 ft 385 kts 277°
2026-04-25 09:29 19.09571 74.37785 21389 ft 383 kts 277°
2026-04-25 09:29 19.09940 74.35044 20954 ft 381 kts 277°
2026-04-25 09:29 19.10311 74.32281 20514 ft 379 kts 277°
2026-04-25 09:29 19.10681 74.29526 20074 ft 377 kts 277°
2026-04-25 09:30 19.11049 74.26787 19641 ft 375 kts 277°
2026-04-25 09:30 19.11414 74.24062 19210 ft 374 kts 277°
2026-04-25 09:30 19.11777 74.21348 18772 ft 373 kts 278°
2026-04-25 09:30 19.12140 74.18636 18335 ft 372 kts 278°
2026-04-25 09:31 19.12502 74.15924 17859 ft 371 kts 278°
2026-04-25 09:31 19.12745 74.14104 17542 ft 370 kts 278°
2026-04-25 09:31 19.13220 74.10542 16949 ft 368 kts 278°
2026-04-25 09:31 19.13575 74.07872 16507 ft 366 kts 278°
2026-04-25 09:32 19.13929 74.05211 16083 ft 364 kts 278°
2026-04-25 09:32 19.14280 74.02568 15660 ft 363 kts 278°
2026-04-25 09:32 19.14572 73.99924 15234 ft 361 kts 273°
2026-04-25 09:32 19.14632 73.97280 14826 ft 360 kts 271°
2026-04-25 09:33 19.14632 73.94637 14410 ft 359 kts 270°
2026-04-25 09:33 19.14617 73.92006 13995 ft 357 kts 270°
2026-04-25 09:33 19.14595 73.89379 13575 ft 356 kts 270°
2026-04-25 09:33 19.14568 73.86798 13125 ft 355 kts 270°
2026-04-25 09:34 19.14538 73.84192 12692 ft 354 kts 270°
2026-04-25 09:34 19.14507 73.81595 12268 ft 352 kts 270°
2026-04-25 09:34 19.14476 73.79011 11858 ft 351 kts 270°
2026-04-25 09:34 19.14448 73.76442 11452 ft 349 kts 270°
2026-04-25 09:35 19.14422 73.73878 11030 ft 347 kts 270°
2026-04-25 09:35 19.14396 73.71334 10660 ft 345 kts 270°
2026-04-25 09:35 19.14373 73.68826 10500 ft 336 kts 270°
2026-04-25 09:35 19.14356 73.66382 10350 ft 328 kts 270°
2026-04-25 09:36 19.14343 73.64005 10219 ft 320 kts 270°
2026-04-25 09:36 19.14334 73.61681 10083 ft 312 kts 270°
2026-04-25 09:36 19.14333 73.59418 9967 ft 304 kts 270°
2026-04-25 09:36 19.14330 73.57952 9874 ft 298 kts 270°
2026-04-25 09:37 19.14325 73.55780 9718 ft 294 kts 270°
2026-04-25 09:37 19.14323 73.53625 9459 ft 291 kts 270°
2026-04-25 09:37 19.14325 73.51503 9312 ft 286 kts 269°
2026-04-25 09:37 19.14028 73.48727 8958 ft 284 kts 260°
2026-04-25 09:38 19.13716 73.46704 8727 ft 281 kts 260°
2026-04-25 09:38 19.13499 73.45335 8502 ft 279 kts 260°
2026-04-25 09:38 19.13068 73.42659 7900 ft 278 kts 260°
2026-04-25 09:38 19.12851 73.41321 7796 ft 268 kts 260°
2026-04-25 09:39 19.12542 73.39425 7623 ft 256 kts 260°
2026-04-25 09:39 19.12240 73.37586 7326 ft 252 kts 260°
2026-04-25 09:39 19.11939 73.35765 6971 ft 251 kts 260°
2026-04-25 09:40 19.11337 73.32166 6345 ft 247 kts 259°
2026-04-25 09:40 19.11044 73.30408 6018 ft 245 kts 260°
2026-04-25 09:40 19.10744 73.28639 5721 ft 243 kts 260°
2026-04-25 09:40 19.10443 73.26895 5419 ft 241 kts 260°
2026-04-25 09:41 19.10138 73.25159 5111 ft 239 kts 260°
2026-04-25 09:41 19.09835 73.23445 4826 ft 236 kts 260°
2026-04-25 09:41 19.09569 73.21737 4506 ft 235 kts 264°
2026-04-25 09:41 19.09441 73.20023 4284 ft 232 kts 267°
2026-04-25 09:42 19.09360 73.18366 4184 ft 220 kts 269°
2026-04-25 09:42 19.09323 73.16804 4091 ft 207 kts 270°
2026-04-25 09:42 19.09295 73.15633 3975 ft 203 kts 269°
2026-04-25 09:42 19.09234 73.14150 3813 ft 201 kts 271°
2026-04-25 09:43 19.09233 73.12705 3815 ft 194 kts 272°
2026-04-25 09:43 19.09230 73.11260 3769 ft 199 kts 271°
2026-04-25 09:43 19.09211 73.09797 3700 ft 200 kts 271°
2026-04-25 09:43 19.09185 73.08323 3576 ft 201 kts 271°
2026-04-25 09:44 19.09137 73.06828 3367 ft 208 kts 270°
2026-04-25 09:44 19.09131 73.05302 3081 ft 202 kts 272°
2026-04-25 09:44 19.09118 73.03877 2855 ft 192 kts 272°
2026-04-25 09:44 19.09100 73.02450 2602 ft 193 kts 272°
2026-04-25 09:45 19.09077 73.01093 2367 ft 181 kts 271°
2026-04-25 09:45 19.09055 72.99773 2144 ft 174 kts 273°
2026-04-25 09:45 19.09039 72.98517 1937 ft 166 kts 272°
2026-04-25 09:45 19.09021 72.97333 1743 ft 165 kts 274°
2026-04-25 09:46 19.09005 72.96125 1542 ft 161 kts 273°
2026-04-25 09:46 19.08988 72.94947 1337 ft 158 kts 273°
2026-04-25 09:46 19.08971 72.93803 1141 ft 157 kts 273°
2026-04-25 09:46 19.08955 72.92640 940 ft 158 kts 272°
2026-04-25 09:47 19.08938 72.91474 760 ft 158 kts 271°
2026-04-25 09:47 19.08921 72.90333 536 ft 152 kts 270°
2026-04-25 09:47 19.08934 72.89241 329 ft 145 kts 270°
2026-04-25 09:47 19.08869 72.88150 209 ft 155 kts 272°
2026-04-25 09:48 19.08882 72.87016 31 ft 151 kts 270°
2026-04-25 09:48 19.08859 72.86048 28 ft 110 kts 269°
2026-04-25 09:48 19.08854 72.85402 32 ft 66 kts 269°
2026-04-25 09:48 19.08849 72.85078 31 ft 22 kts 277°
2026-04-25 09:49 19.08856 72.85029 31 ft 11 kts 275°
2026-04-25 09:49 19.08919 72.84929 32 ft 19 kts 351°
2026-04-25 09:49 19.08988 72.85000 30 ft 7 kts 75°
2026-04-25 09:49 19.08998 72.85039 32 ft 0 kts 75°
2026-04-25 09:53 19.08999 72.85044 31 ft 2 kts 75°
2026-04-25 09:53 19.09006 72.85073 32 ft 7 kts 75°
2026-04-25 09:53 19.09016 72.85138 32 ft 12 kts 86°
2026-04-25 09:53 19.09019 72.85241 32 ft 16 kts 91°
2026-04-25 09:54 19.09022 72.85363 32 ft 16 kts 86°
2026-04-25 09:54 19.09024 72.85482 32 ft 16 kts 91°
2026-04-25 09:54 19.09027 72.85596 32 ft 15 kts 88°
2026-04-25 09:54 19.09027 72.85706 31 ft 15 kts 91°
2026-04-25 09:55 19.09026 72.85811 31 ft 14 kts 88°
2026-04-25 09:55 19.09028 72.85912 31 ft 13 kts 90°
2026-04-25 09:55 19.09030 72.86008 31 ft 13 kts 89°
2026-04-25 09:55 19.09032 72.86102 31 ft 13 kts 88°
2026-04-25 09:56 19.09034 72.86193 31 ft 12 kts 89°
2026-04-25 09:56 19.09035 72.86281 31 ft 12 kts 89°
2026-04-25 09:56 19.09036 72.86368 30 ft 12 kts 89°
2026-04-25 09:56 19.09038 72.86452 30 ft 11 kts 89°
2026-04-25 09:57 19.09039 72.86533 29 ft 11 kts 89°
2026-04-25 09:57 19.09040 72.86613 30 ft 11 kts 88°
2026-04-25 09:57 19.09043 72.86690 31 ft 10 kts 88°
2026-04-25 09:57 19.09045 72.86766 32 ft 10 kts 88°
2026-04-25 09:58 19.09043 72.86839 32 ft 10 kts 93°
2026-04-25 09:58 19.09043 72.86910 32 ft 10 kts 89°
2026-04-25 09:58 19.09044 72.86979 32 ft 9 kts 89°
2026-04-25 09:58 19.09044 72.87047 32 ft 9 kts 89°
2026-04-25 09:59 19.09044 72.87076 32 ft 0 kts 90°
2026-04-25 09:59 19.09044 72.87084 32 ft 2 kts 90°
2026-04-25 09:59 19.09044 72.87111 32 ft 4 kts 89°
2026-04-25 10:00 19.09046 72.87145 32 ft 6 kts 87°
2026-04-25 10:00 19.09049 72.87210 32 ft 12 kts 86°
2026-04-25 10:00 19.09053 72.87320 32 ft 18 kts 91°
2026-04-25 10:00 19.09061 72.87427 31 ft 13 kts 62°
2026-04-25 10:01 19.09129 72.87482 31 ft 13 kts 69°
2026-04-25 10:01 19.09143 72.87573 32 ft 12 kts 85°
2026-04-25 10:01 19.09166 72.87657 32 ft 12 kts 45°
2026-04-25 10:01 19.09211 72.87669 32 ft 0 kts
2026-04-25 10:03 19.09212 72.87670 32 ft 1 kts
2026-04-25 10:03 19.09227 72.87670 32 ft 4 kts
2026-04-25 10:03 19.09261 72.87678 32 ft 6 kts 25°
2026-04-25 10:03 19.09310 72.87705 32 ft 9 kts 27°
2026-04-25 10:04 19.09372 72.87741 32 ft 10 kts 31°
2026-04-25 10:04 19.09407 72.87763 32 ft 5 kts 31°
2026-04-25 10:04 19.09427 72.87775 32 ft 1 kts 21°
2026-04-25 10:04 19.09434 72.87773 32 ft 2 kts 350°
2026-04-25 10:05 19.09453 72.87760 31 ft 4 kts 319°
2026-04-25 10:05 19.09475 72.87736 32 ft 2 kts 313°
2026-04-25 10:05 19.09487 72.87722 32 ft 1 kts 313°
2026-04-25 10:05 19.09488 72.87721 32 ft 0 kts 313°